Time,TemperatureF,DewpointF,PressureIn,WindDirection,WindDirectionDegrees,WindSpeedMPH,WindSpeedGustMPH,Humidity,HourlyPrecipIn,Conditions,Clouds,dailyrainin,SoftwareType,DateUTC
2013-04-13 00:00:00,44.8,38.0,28.66,South,180,10.4,10.4,77,0.00,CLR,SKC,0.44,WeatherDisplay:10.37,2013-04-13 04:00:00,
2013-04-13 00:01:00,45.0,38.2,28.66,South,180,5.8,5.8,77,0.00,RA,SKC,0.00,WeatherDisplay:10.37,2013-04-13 04:01:00,
2013-04-13 00:03:00,45.0,38.2,28.67,South,180,5.8,5.8,77,0.00,RA,SKC,0.00,WeatherDisplay:10.37,2013-04-13 04:03:00,
2013-04-13 00:08:00,45.0,38.2,28.66,South,180,5.8,5.8,77,0.00,RA,SKC,0.00,WeatherDisplay:10.37,2013-04-13 04:08:00,
2013-04-13 00:13:00,44.8,38.3,28.67,SE,135,5.8,5.8,78,0.00,CLR,SKC,0.00,WeatherDisplay:10.37,2013-04-13 04:13:00,
2013-04-13 00:18:00,44.8,38.3,28.67,South,180,8.1,8.1,78,0.00,CLR,SKC,0.00,WeatherDisplay:10.37,2013-04-13 04:18:00,
2013-04-13 00:23:00,44.8,38.3,28.67,South,180,9.2,9.2,78,0.00,CLR,SKC,0.00,WeatherDisplay:10.37,2013-04-13 04:23:00,
2013-04-13 00:28:00,44.8,38.3,28.67,SE,135,8.1,8.1,78,0.00,CLR,SKC,0.00,WeatherDisplay:10.37,2013-04-13 04:28:00,
2013-04-13 00:33:00,44.8,38.3,28.67,South,180,10.4,10.4,78,0.00,CLR,SKC,0.00,WeatherDisplay:10.37,2013-04-13 04:33:00,
2013-04-13 00:38:00,44.6,38.2,28.67,South,180,5.8,5.8,78,0.00,CLR,SKC,0.00,WeatherDisplay:10.37,2013-04-13 04:38:00,
2013-04-13 00:43:00,44.6,38.2,28.67,South,180,9.2,9.2,78,0.00,CLR,SKC,0.00,WeatherDisplay:10.37,2013-04-13 04:43:00,
2013-04-13 00:48:00,44.6,38.2,28.67,South,180,8.1,8.1,78,0.00,CLR,SKC,0.00,WeatherDisplay:10.37,2013-04-13 04:48:00,
2013-04-13 00:53:00,44.6,38.2,28.67,South,180,11.5,11.5,78,0.00,CLR,SKC,0.00,WeatherDisplay:10.37,2013-04-13 04:53:00,
2013-04-13 00:58:00,44.6,38.5,28.67,South,180,5.8,5.8,79,0.00,CLR,SKC,0.00,WeatherDisplay:10.37,2013-04-13 04:58:00,
2013-04-13 01:03:00,44.6,38.2,28.67,South,180,10.4,10.4,78,0.00,CLR,SKC,0.00,WeatherDisplay:10.37,2013-04-13 05:03:00,
2013-04-13 01:08:00,44.6,38.5,28.68,North,8,5.8,5.8,79,0.00,CLR,SKC,0.00,WeatherDisplay:10.37,2013-04-13 05:08:00,
2013-04-13 01:13:00,44.6,38.5,28.68,South,180,9.2,9.2,79,0.00,CLR,SKC,0.00,WeatherDisplay:10.37,2013-04-13 05:13:00,
2013-04-13 01:18:00,44.4,38.3,28.68,South,180,8.1,8.1,79,0.00,CLR,SKC,0.00,WeatherDisplay:10.37,2013-04-13 05:18:00,
2013-04-13 01:23:00,44.4,38.3,28.68,South,180,11.5,11.5,79,0.00,CLR,SKC,0.00,WeatherDisplay:10.37,2013-04-13 05:23:00,
2013-04-13 01:28:00,44.2,38.1,28.68,North,0,8.1,8.1,79,0.00,CLR,SKC,0.00,WeatherDisplay:10.37,2013-04-13 05:28:00,
2013-04-13 01:33:00,44.2,38.1,28.68,NW,315,6.9,6.9,79,0.00,CLR,SKC,0.00,WeatherDisplay:10.37,2013-04-13 05:33:00,
2013-04-13 01:38:00,44.1,38.0,28.68,South,180,6.9,6.9,79,0.00,CLR,SKC,0.00,WeatherDisplay:10.37,2013-04-13 05:38:00,
2013-04-13 01:43:00,44.1,37.6,28.68,South,180,10.4,10.4,78,0.00,CLR,SKC,0.00,WeatherDisplay:10.37,2013-04-13 05:43:00,
2013-04-13 01:48:00,44.1,37.6,28.68,South,180,8.1,8.1,78,0.00,CLR,SKC,0.00,WeatherDisplay:10.37,2013-04-13 05:48:00,
2013-04-13 01:53:00,44.1,37.3,28.68,North,0,11.5,11.5,77,0.00,CLR,SKC,0.00,WeatherDisplay:10.37,2013-04-13 05:53:00,
2013-04-13 01:58:00,44.1,37.0,28.68,West,270,8.1,8.1,76,0.00,CLR,SKC,0.00,WeatherDisplay:10.37,2013-04-13 05:58:00,
2013-04-13 02:03:00,44.1,36.6,28.68,South,180,10.4,10.4,75,0.00,CLR,SKC,0.00,WeatherDisplay:10.37,2013-04-13 06:03:00,
2013-04-13 02:08:00,43.9,36.1,28.68,South,180,12.7,12.7,74,0.00,CLR,SKC,0.00,WeatherDisplay:10.37,2013-04-13 06:08:00,
2013-04-13 02:13:00,43.9,36.1,28.68,North,8,12.7,12.7,74,0.00,CLR,SKC,0.00,WeatherDisplay:10.37,2013-04-13 06:13:00,
2013-04-13 02:18:00,43.9,36.5,28.68,West,270,8.1,8.1,75,0.00,CLR,SKC,0.00,WeatherDisplay:10.37,2013-04-13 06:18:00,
2013-04-13 02:23:00,43.9,36.5,28.68,West,270,4.6,4.6,75,0.00,CLR,SKC,0.00,WeatherDisplay:10.37,2013-04-13 06:23:00,
2013-04-13 02:29:00,43.7,36.3,28.68,South,180,10.4,10.4,75,0.00,CLR,SKC,0.00,WeatherDisplay:10.37,2013-04-13 06:29:00,
2013-04-13 02:34:00,43.7,36.0,28.68,South,180,11.5,11.5,74,0.00,CLR,SKC,0.00,WeatherDisplay:10.37,2013-04-13 06:34:00,
2013-04-13 02:39:00,43.5,35.8,28.68,South,180,4.6,4.6,74,0.00,CLR,SKC,0.00,WeatherDisplay:10.37,2013-04-13 06:39:00,
2013-04-13 02:44:00,43.2,35.8,28.68,South,180,9.2,9.2,75,0.00,CLR,SKC,0.00,WeatherDisplay:10.37,2013-04-13 06:44:00,
2013-04-13 02:50:00,43.0,35.9,28.68,South,180,4.6,4.6,76,0.00,CLR,SKC,0.00,WeatherDisplay:10.37,2013-04-13 06:50:00,
2013-04-13 02:55:00,42.8,35.8,28.68,West,270,8.1,8.1,76,0.00,CLR,SKC,0.00,WeatherDisplay:10.37,2013-04-13 06:55:00,
2013-04-13 03:00:00,42.6,35.2,28.68,South,180,10.4,10.4,75,0.00,CLR,SKC,0.00,WeatherDisplay:10.37,2013-04-13 07:00:00,
2013-04-13 03:05:00,42.4,35.1,28.68,South,180,10.4,10.4,75,0.00,CLR,SKC,0.00,WeatherDisplay:10.37,2013-04-13 07:05:00,
2013-04-13 03:10:00,42.4,35.1,28.69,South,180,13.8,13.8,75,0.00,CLR,SKC,0.00,WeatherDisplay:10.37,2013-04-13 07:10:00,
2013-04-13 03:15:00,42.3,34.9,28.68,South,180,10.4,10.4,75,0.00,CLR,SKC,0.00,WeatherDisplay:10.37,2013-04-13 07:15:00,
2013-04-13 03:20:00,42.3,34.9,28.68,South,180,9.2,9.2,75,0.00,CLR,SKC,0.00,WeatherDisplay:10.37,2013-04-13 07:20:00,
2013-04-13 03:26:00,42.1,34.7,28.68,South,180,5.8,5.8,75,0.00,CLR,SKC,0.00,WeatherDisplay:10.37,2013-04-13 07:26:00,
2013-04-13 03:31:00,41.9,34.9,28.69,South,180,4.6,4.6,76,0.00,CLR,SKC,0.00,WeatherDisplay:10.37,2013-04-13 07:31:00,
2013-04-13 03:36:00,41.7,34.7,28.68,West,270,5.8,5.8,76,0.00,CLR,SKC,0.00,WeatherDisplay:10.37,2013-04-13 07:36:00,
2013-04-13 03:42:00,41.7,35.0,28.69,South,180,12.7,12.7,77,0.00,CLR,SKC,0.00,WeatherDisplay:10.37,2013-04-13 07:42:00,
2013-04-13 03:47:00,41.7,35.0,28.69,South,180,8.1,8.1,77,0.00,CLR,SKC,0.00,WeatherDisplay:10.37,2013-04-13 07:47:00,
2013-04-13 03:53:00,41.5,35.2,28.70,South,180,8.1,8.1,78,0.00,CLR,SKC,0.00,WeatherDisplay:10.37,2013-04-13 07:53:00,
2013-04-13 03:58:00,41.4,35.0,28.70,South,180,9.2,9.2,78,0.00,CLR,SKC,0.00,WeatherDisplay:10.37,2013-04-13 07:58:00,
2013-04-13 04:03:00,41.4,35.0,28.70,SE,135,8.1,8.1,78,0.00,CLR,SKC,0.00,WeatherDisplay:10.37,2013-04-13 08:03:00,
2013-04-13 04:08:00,41.4,35.0,28.70,West,270,10.4,10.4,78,0.00,CLR,SKC,0.00,WeatherDisplay:10.37,2013-04-13 08:08:00,
2013-04-13 04:13:00,41.2,34.8,28.70,SE,135,6.9,6.9,78,0.00,CLR,SKC,0.00,WeatherDisplay:10.37,2013-04-13 08:13:00,
2013-04-13 04:18:00,41.0,34.7,28.70,South,180,10.4,10.4,78,0.00,CLR,SKC,0.00,WeatherDisplay:10.37,2013-04-13 08:18:00,
2013-04-13 04:23:00,41.0,34.7,28.70,South,180,6.9,6.9,78,0.00,CLR,SKC,0.00,WeatherDisplay:10.37,2013-04-13 08:23:00,
2013-04-13 04:28:00,41.0,34.7,28.70,SE,135,8.1,8.1,78,0.00,CLR,SKC,0.00,WeatherDisplay:10.37,2013-04-13 08:28:00,
2013-04-13 04:33:00,41.0,34.7,28.70,South,180,10.4,10.4,78,0.00,CLR,SKC,0.00,WeatherDisplay:10.37,2013-04-13 08:33:00,
2013-04-13 04:38:00,41.0,34.7,28.71,South,180,4.6,4.6,78,0.00,CLR,SKC,0.00,WeatherDisplay:10.37,2013-04-13 08:38:00,
2013-04-13 04:43:00,40.8,34.5,28.70,South,180,10.4,10.4,78,0.00,CLR,SKC,0.00,WeatherDisplay:10.37,2013-04-13 08:43:00,
2013-04-13 04:48:00,40.6,34.3,28.70,South,180,11.5,11.5,78,0.00,CLR,SKC,0.00,WeatherDisplay:10.37,2013-04-13 08:48:00,
2013-04-13 04:54:00,40.6,34.3,28.70,South,180,8.1,8.1,78,0.00,CLR,SKC,0.00,WeatherDisplay:10.37,2013-04-13 08:54:00,
2013-04-13 04:59:00,40.5,34.1,28.70,South,180,16.1,16.1,78,0.00,CLR,SKC,0.00,WeatherDisplay:10.37,2013-04-13 08:59:00,
2013-04-13 05:05:00,40.6,34.3,28.70,South,180,8.1,8.1,78,0.00,CLR,SKC,0.00,WeatherDisplay:10.37,2013-04-13 09:05:00,
2013-04-13 05:10:00,40.5,34.5,28.70,South,180,8.1,8.1,79,0.00,CLR,SKC,0.00,WeatherDisplay:10.37,2013-04-13 09:10:00,
2013-04-13 05:15:00,40.3,34.3,28.70,South,180,5.8,5.8,79,0.00,CLR,SKC,0.00,WeatherDisplay:10.37,2013-04-13 09:15:00,
2013-04-13 05:20:00,40.1,34.1,28.70,South,180,5.8,5.8,79,0.00,CLR,SKC,0.00,WeatherDisplay:10.37,2013-04-13 09:20:00,
2013-04-13 05:25:00,39.9,33.9,28.70,South,180,8.1,8.1,79,0.00,CLR,SKC,0.00,WeatherDisplay:10.37,2013-04-13 09:25:00,
2013-04-13 05:30:00,39.9,34.2,28.70,South,180,6.9,6.9,80,0.00,CLR,SKC,0.00,WeatherDisplay:10.37,2013-04-13 09:30:00,
2013-04-13 05:35:00,39.7,34.4,28.70,South,180,3.5,3.5,81,0.00,CLR,SKC,0.00,WeatherDisplay:10.37,2013-04-13 09:35:00,
2013-04-13 05:40:00,39.7,34.4,28.70,NE,45,5.8,5.8,81,0.00,CLR,SKC,0.00,WeatherDisplay:10.37,2013-04-13 09:40:00,
2013-04-13 05:45:00,39.7,34.7,28.70,South,180,9.2,9.2,82,0.00,CLR,SKC,0.00,WeatherDisplay:10.37,2013-04-13 09:45:00,
2013-04-13 05:51:00,39.6,34.5,28.70,South,180,8.1,8.1,82,0.00,CLR,SKC,0.00,WeatherDisplay:10.37,2013-04-13 09:51:00,
2013-04-13 05:57:00,39.6,34.5,28.70,South,180,5.8,5.8,82,0.00,CLR,SKC,0.00,WeatherDisplay:10.37,2013-04-13 09:57:00,
2013-04-13 06:02:00,39.4,34.3,28.71,ENE,68,3.5,3.5,82,0.00,CLR,SKC,0.00,WeatherDisplay:10.37,2013-04-13 10:02:00,
2013-04-13 06:08:00,39.2,34.5,28.70,South,180,5.4,5.4,83,0.00,CLR,SKC,0.00,WeatherDisplay:10.37,2013-04-13 10:08:00,
2013-04-13 06:13:00,39.2,34.5,28.71,South,180,12.7,12.7,83,0.00,CLR,SKC,0.00,WeatherDisplay:10.37,2013-04-13 10:13:00,
2013-04-13 06:18:00,39.2,34.8,28.70,North,0,5.8,5.8,84,0.00,CLR,SKC,0.00,WeatherDisplay:10.37,2013-04-13 10:18:00,
2013-04-13 06:23:00,39.0,34.6,28.70,South,180,5.8,5.8,84,0.00,CLR,SKC,0.00,WeatherDisplay:10.37,2013-04-13 10:23:00,
2013-04-13 06:28:00,38.8,34.4,28.70,South,180,4.6,4.6,84,0.00,CLR,SKC,0.00,WeatherDisplay:10.37,2013-04-13 10:28:00,
2013-04-13 06:33:00,38.8,34.4,28.71,SE,135,3.5,3.5,84,0.00,CLR,SKC,0.00,WeatherDisplay:10.37,2013-04-13 10:33:00,
2013-04-13 06:38:00,38.7,34.5,28.71,South,180,3.5,3.8,85,0.00,CLR,SKC,0.00,WeatherDisplay:10.37,2013-04-13 10:38:00,
2013-04-13 06:43:00,38.7,34.5,28.72,South,180,3.5,3.5,85,0.00,CLR,SKC,0.00,WeatherDisplay:10.37,2013-04-13 10:43:00,
2013-04-13 06:49:00,38.5,34.4,28.72,SE,135,3.5,0.0,85,0.00,CLR,SKC,0.00,WeatherDisplay:10.37,2013-04-13 10:49:00,
2013-04-13 06:54:00,38.3,34.2,28.71,South,180,2.3,2.3,85,0.00,CLR,SKC,0.00,WeatherDisplay:10.37,2013-04-13 10:54:00,
2013-04-13 06:59:00,38.1,34.3,28.71,SE,135,3.5,0.0,86,0.00,CLR,SKC,0.00,WeatherDisplay:10.37,2013-04-13 10:59:00,
2013-04-13 07:04:00,38.1,34.3,28.71,SE,135,2.3,2.3,86,0.00,CLR,SKC,0.00,WeatherDisplay:10.37,2013-04-13 11:04:00,
2013-04-13 07:10:00,38.1,34.3,28.72,South,180,2.3,2.3,86,0.00,CLR,SKC,0.00,WeatherDisplay:10.37,2013-04-13 11:10:00,
2013-04-13 07:15:00,38.1,34.3,28.72,East,90,2.3,0.0,86,0.00,CLR,SKC,0.00,WeatherDisplay:10.37,2013-04-13 11:15:00,
2013-04-13 07:20:00,38.3,34.8,28.72,South,180,3.5,3.5,87,0.00,CLR,SKC,0.00,WeatherDisplay:10.37,2013-04-13 11:20:00,
2013-04-13 07:26:00,38.5,34.9,28.73,SE,135,3.5,3.5,87,0.00,CLR,SKC,0.00,WeatherDisplay:10.37,2013-04-13 11:26:00,
2013-04-13 07:31:00,38.8,35.3,28.73,South,180,3.5,3.5,87,0.00,CLR,SKC,0.00,WeatherDisplay:10.37,2013-04-13 11:31:00,
2013-04-13 07:36:00,39.0,35.2,28.73,West,270,4.6,4.6,86,0.00,CLR,SKC,0.00,WeatherDisplay:10.37,2013-04-13 11:36:00,
2013-04-13 07:41:00,39.4,35.2,28.73,South,180,5.8,5.8,85,0.00,CLR,SKC,0.00,WeatherDisplay:10.37,2013-04-13 11:41:00,
2013-04-13 07:46:00,39.6,35.4,28.74,East,90,3.5,3.5,85,0.00,CLR,SKC,0.00,WeatherDisplay:10.37,2013-04-13 11:46:00,
2013-04-13 07:51:00,39.7,35.6,28.74,NW,315,3.5,3.5,85,0.00,CLR,SKC,0.00,WeatherDisplay:10.37,2013-04-13 11:51:00,
2013-04-13 07:56:00,39.9,35.5,28.74,SE,135,5.8,5.8,84,0.00,CLR,SKC,0.00,WeatherDisplay:10.37,2013-04-13 11:56:00,
2013-04-13 08:02:00,40.1,35.7,28.74,West,270,6.9,6.9,84,0.00,CLR,SKC,0.00,WeatherDisplay:10.37,2013-04-13 12:02:00,
2013-04-13 08:07:00,40.1,35.7,28.74,SE,135,6.9,6.9,84,0.00,CLR,SKC,0.00,WeatherDisplay:10.37,2013-04-13 12:07:00,
2013-04-13 08:13:00,40.3,35.5,28.75,South,180,5.8,5.8,83,0.00,CLR,SKC,0.00,WeatherDisplay:10.37,2013-04-13 12:13:00,
2013-04-13 08:19:00,40.6,35.9,28.74,SE,135,6.9,6.9,83,0.00,CLR,SKC,0.00,WeatherDisplay:10.37,2013-04-13 12:19:00,
2013-04-13 08:24:00,40.8,36.1,28.74,SE,135,3.5,3.5,83,0.00,CLR,SKC,0.00,WeatherDisplay:10.37,2013-04-13 12:24:00,
2013-04-13 08:29:00,40.8,36.1,28.74,SE,135,6.9,6.9,83,0.00,CLR,SKC,0.00,WeatherDisplay:10.37,2013-04-13 12:29:00,
2013-04-13 08:34:00,41.0,36.2,28.74,NE,45,3.5,3.5,83,0.00,CLR,SKC,0.00,WeatherDisplay:10.37,2013-04-13 12:34:00,
2013-04-13 08:39:00,41.2,36.1,28.75,NW,315,4.6,5.4,82,0.00,CLR,SKC,0.00,WeatherDisplay:10.37,2013-04-13 12:39:00,
2013-04-13 08:44:00,41.2,36.1,28.75,South,180,5.8,5.8,82,0.00,CLR,SKC,0.00,WeatherDisplay:10.37,2013-04-13 12:44:00,
2013-04-13 08:49:00,41.4,36.3,28.74,SE,135,5.8,5.8,82,0.00,CLR,SKC,0.00,WeatherDisplay:10.37,2013-04-13 12:49:00,
2013-04-13 08:54:00,41.7,36.3,28.75,South,180,6.9,6.9,81,0.00,CLR,SKC,0.00,WeatherDisplay:10.37,2013-04-13 12:54:00,
2013-04-13 08:59:00,42.1,36.7,28.75,SE,135,5.8,5.8,81,0.00,CLR,SKC,0.00,WeatherDisplay:10.37,2013-04-13 12:59:00,
2013-04-13 09:04:00,42.1,36.4,28.75,South,180,8.1,8.1,80,0.00,CLR,SKC,0.00,WeatherDisplay:10.37,2013-04-13 13:04:00,
2013-04-13 09:10:00,42.1,36.4,28.75,SE,135,5.8,5.8,80,0.00,CLR,SKC,0.00,WeatherDisplay:10.37,2013-04-13 13:10:00,
2013-04-13 09:15:00,42.3,36.5,28.75,SE,135,6.0,6.0,80,0.00,CLR,SKC,0.00,WeatherDisplay:10.37,2013-04-13 13:15:00,
2013-04-13 09:21:00,42.3,36.5,28.75,SE,135,8.1,8.1,80,0.00,CLR,SKC,0.00,WeatherDisplay:10.37,2013-04-13 13:21:00,
2013-04-13 09:28:00,42.4,36.4,28.75,NW,315,6.9,6.9,79,0.00,CLR,SKC,0.00,WeatherDisplay:10.37,2013-04-13 13:28:00,
2013-04-13 09:33:00,42.4,36.4,28.75,South,180,5.8,5.8,79,0.00,CLR,SKC,0.00,WeatherDisplay:10.37,2013-04-13 13:33:00,
2013-04-13 09:38:00,42.3,36.2,28.75,South,180,9.2,9.2,79,0.00,CLR,SKC,0.00,WeatherDisplay:10.37,2013-04-13 13:38:00,
2013-04-13 09:43:00,42.3,36.2,28.75,West,270,9.2,9.2,79,0.00,CLR,SKC,0.00,WeatherDisplay:10.37,2013-04-13 13:43:00,
2013-04-13 09:49:00,42.4,36.4,28.75,SE,135,4.6,4.6,79,0.00,CLR,SKC,0.00,WeatherDisplay:10.37,2013-04-13 13:49:00,
2013-04-13 09:54:00,43.0,36.9,28.75,South,180,4.6,4.6,79,0.00,CLR,SKC,0.00,WeatherDisplay:10.37,2013-04-13 13:54:00,
2013-04-13 09:59:00,43.3,36.9,28.75,East,90,4.6,4.6,78,0.00,CLR,SKC,0.00,WeatherDisplay:10.37,2013-04-13 13:59:00,
2013-04-13 10:04:00,43.9,36.8,28.75,West,270,12.7,12.7,76,0.00,CLR,SKC,0.00,WeatherDisplay:10.37,2013-04-13 14:04:00,
2013-04-13 10:09:00,44.1,36.6,28.75,SE,135,10.4,10.4,75,0.00,CLR,SKC,0.00,WeatherDisplay:10.37,2013-04-13 14:09:00,
2013-04-13 10:14:00,44.1,36.3,28.75,South,180,12.7,12.7,74,0.00,CLR,SKC,0.00,WeatherDisplay:10.37,2013-04-13 14:14:00,
2013-04-13 10:19:00,43.5,35.8,28.75,South,180,9.2,9.2,74,0.00,CLR,SKC,0.00,WeatherDisplay:10.37,2013-04-13 14:19:00,
2013-04-13 10:25:00,43.3,35.6,28.75,South,180,9.2,9.2,74,0.00,CLR,SKC,0.00,WeatherDisplay:10.37,2013-04-13 14:25:00,
2013-04-13 10:30:00,43.2,35.8,28.75,West,270,8.1,8.1,75,0.00,CLR,SKC,0.00,WeatherDisplay:10.37,2013-04-13 14:30:00,
2013-04-13 10:35:00,43.5,36.1,28.75,North,0,8.1,8.1,75,0.00,CLR,SKC,0.00,WeatherDisplay:10.37,2013-04-13 14:35:00,
2013-04-13 10:40:00,43.9,35.8,28.75,South,180,12.7,12.7,73,0.00,CLR,SKC,0.00,WeatherDisplay:10.37,2013-04-13 14:40:00,
2013-04-13 10:45:00,44.2,36.5,28.75,SSE,158,5.8,5.8,74,0.00,CLR,SKC,0.00,WeatherDisplay:10.37,2013-04-13 14:45:00,
2013-04-13 10:50:00,45.3,36.8,28.75,South,180,5.8,5.8,72,0.00,CLR,SKC,0.00,WeatherDisplay:10.37,2013-04-13 14:50:00,
2013-04-13 10:56:00,46.2,36.2,28.75,South,180,6.9,6.9,68,0.00,CLR,SKC,0.00,WeatherDisplay:10.37,2013-04-13 14:56:00,
2013-04-13 11:01:00,45.9,35.1,28.75,South,180,9.2,9.2,66,0.00,CLR,SKC,0.00,WeatherDisplay:10.37,2013-04-13 15:01:00,
2013-04-13 11:07:00,45.9,35.1,28.75,South,180,6.9,6.9,66,0.00,CLR,SKC,0.00,WeatherDisplay:10.37,2013-04-13 15:07:00,
2013-04-13 11:12:00,45.7,35.3,28.75,East,90,12.7,12.7,67,0.00,CLR,SKC,0.00,WeatherDisplay:10.37,2013-04-13 15:12:00,
2013-04-13 11:17:00,45.9,35.9,28.75,NW,315,5.8,5.8,68,0.00,CLR,SKC,0.00,WeatherDisplay:10.37,2013-04-13 15:17:00,
2013-04-13 11:23:00,45.7,35.3,28.75,SE,135,6.9,6.9,67,0.00,CLR,SKC,0.00,WeatherDisplay:10.37,2013-04-13 15:23:00,
2013-04-13 11:29:00,45.3,35.0,28.75,South,180,17.3,17.3,67,0.00,CLR,SKC,0.00,WeatherDisplay:10.37,2013-04-13 15:29:00,
2013-04-13 11:34:00,45.3,35.0,28.75,South,180,10.4,10.4,67,0.00,CLR,SKC,0.00,WeatherDisplay:10.37,2013-04-13 15:34:00,
2013-04-13 11:39:00,45.3,34.6,28.75,South,180,8.1,9.2,66,0.00,CLR,SKC,0.00,WeatherDisplay:10.37,2013-04-13 15:39:00,
2013-04-13 11:44:00,45.3,34.6,28.76,South,180,9.2,9.2,66,0.00,CLR,SKC,0.00,WeatherDisplay:10.37,2013-04-13 15:44:00,
2013-04-13 11:49:00,45.5,34.8,28.75,SE,135,6.9,6.9,66,0.00,CLR,SKC,0.00,WeatherDisplay:10.37,2013-04-13 15:49:00,
2013-04-13 11:54:00,45.5,34.4,28.75,South,180,17.3,17.3,65,0.00,CLR,SKC,0.00,WeatherDisplay:10.37,2013-04-13 15:54:00,
2013-04-13 11:59:00,45.7,35.3,28.75,West,270,11.5,11.5,67,0.00,CLR,SKC,0.00,WeatherDisplay:10.37,2013-04-13 15:59:00,
2013-04-13 12:04:00,45.7,34.6,28.75,West,270,15.0,15.0,65,0.00,CLR,SKC,0.00,WeatherDisplay:10.37,2013-04-13 16:04:00,
2013-04-13 12:09:00,45.7,34.6,28.75,North,8,15.0,15.0,65,0.00,CLR,SKC,0.00,WeatherDisplay:10.37,2013-04-13 16:09:00,
2013-04-13 12:14:00,46.2,35.5,28.75,North,0,12.7,12.7,66,0.00,CLR,SKC,0.00,WeatherDisplay:10.37,2013-04-13 16:14:00,
2013-04-13 12:19:00,46.9,35.0,28.75,West,270,15.0,15.0,63,0.00,CLR,SKC,0.00,WeatherDisplay:10.37,2013-04-13 16:19:00,
2013-04-13 12:25:00,47.3,35.7,28.75,South,180,11.5,11.5,64,0.00,CLR,SKC,0.00,WeatherDisplay:10.37,2013-04-13 16:25:00,
2013-04-13 12:30:00,47.7,35.7,28.75,NW,315,10.4,10.4,63,0.00,CLR,SKC,0.00,WeatherDisplay:10.37,2013-04-13 16:30:00,
2013-04-13 12:35:00,48.0,36.0,28.75,South,180,10.4,10.4,63,0.00,CLR,SKC,0.00,WeatherDisplay:10.37,2013-04-13 16:35:00,
2013-04-13 12:40:00,48.4,36.4,28.75,NW,315,5.8,5.8,63,0.00,CLR,SKC,0.00,WeatherDisplay:10.37,2013-04-13 16:40:00,
2013-04-13 12:46:00,49.3,36.0,28.75,SE,135,8.1,8.1,60,0.00,CLR,SKC,0.00,WeatherDisplay:10.37,2013-04-13 16:46:00,
2013-04-13 12:51:00,49.5,36.1,28.74,South,180,8.1,8.1,60,0.00,CLR,SKC,0.00,WeatherDisplay:10.37,2013-04-13 16:51:00,
2013-04-13 12:56:00,49.1,35.8,28.75,South,180,15.0,15.0,60,0.00,CLR,SKC,0.00,WeatherDisplay:10.37,2013-04-13 16:56:00,
2013-04-13 13:01:00,48.2,35.4,28.75,South,180,15.0,15.0,61,0.00,CLR,SKC,0.00,WeatherDisplay:10.37,2013-04-13 17:01:00,
2013-04-13 13:06:00,48.6,35.7,28.75,West,270,8.1,8.1,61,0.00,CLR,SKC,0.00,WeatherDisplay:10.37,2013-04-13 17:06:00,
2013-04-13 13:11:00,48.4,35.5,28.75,NW,315,8.1,8.1,61,0.00,CLR,SKC,0.00,WeatherDisplay:10.37,2013-04-13 17:11:00,
2013-04-13 13:16:00,48.6,36.5,28.75,NE,45,9.2,9.2,63,0.00,CLR,SKC,0.00,WeatherDisplay:10.37,2013-04-13 17:16:00,
2013-04-13 13:21:00,49.5,37.0,28.75,South,180,4.6,5.4,62,0.00,CLR,SKC,0.00,WeatherDisplay:10.37,2013-04-13 17:21:00,
2013-04-13 13:26:00,48.9,36.1,28.76,SE,135,8.1,8.1,61,0.00,CLR,SKC,0.00,WeatherDisplay:10.37,2013-04-13 17:26:00,
2013-04-13 13:31:00,49.1,36.2,28.75,South,180,10.7,10.7,61,0.00,CLR,SKC,0.00,WeatherDisplay:10.37,2013-04-13 17:31:00,
2013-04-13 13:36:00,49.5,36.6,28.75,South,180,10.4,10.4,61,0.00,CLR,SKC,0.00,WeatherDisplay:10.37,2013-04-13 17:36:00,
2013-04-13 13:41:00,49.6,36.7,28.75,East,90,9.2,9.2,61,0.00,CLR,SKC,0.00,WeatherDisplay:10.37,2013-04-13 17:41:00,
2013-04-13 13:46:00,49.6,36.3,28.75,North,0,10.4,10.4,60,0.00,CLR,SKC,0.00,WeatherDisplay:10.37,2013-04-13 17:46:00,
2013-04-13 13:52:00,49.8,36.5,28.75,South,180,15.0,15.0,60,0.00,CLR,SKC,0.00,WeatherDisplay:10.37,2013-04-13 17:52:00,
2013-04-13 13:57:00,50.0,37.9,28.75,NW,315,8.1,8.1,63,0.00,CLR,SKC,0.00,WeatherDisplay:10.37,2013-04-13 17:57:00,
2013-04-13 14:02:00,50.5,36.7,28.75,South,180,11.5,11.5,59,0.00,CLR,SKC,0.00,WeatherDisplay:10.37,2013-04-13 18:02:00,
2013-04-13 14:07:00,50.5,37.2,28.75,South,180,9.2,9.2,60,0.00,CLR,SKC,0.00,WeatherDisplay:10.37,2013-04-13 18:07:00,
2013-04-13 14:12:00,50.7,37.3,28.75,South,180,8.1,8.1,60,0.00,CLR,SKC,0.00,WeatherDisplay:10.37,2013-04-13 18:12:00,
2013-04-13 14:18:00,52.5,37.3,28.74,NW,315,9.2,9.2,56,0.00,CLR,SKC,0.00,WeatherDisplay:10.37,2013-04-13 18:18:00,
2013-04-13 14:23:00,53.6,38.3,28.73,West,270,4.6,4.6,56,0.00,CLR,SKC,0.00,WeatherDisplay:10.37,2013-04-13 18:23:00,
2013-04-13 14:27:00,53.8,38.9,28.73,NW,315,11.5,11.5,57,0.00,CLR,SKC,0.00,WeatherDisplay:10.37,2013-04-13 18:27:00,
2013-04-13 14:28:00,54.1,38.8,28.73,South,180,8.1,8.1,56,0.00,CLR,SKC,0.00,WeatherDisplay:10.37,2013-04-13 18:28:00,
2013-04-13 14:32:00,53.2,38.4,28.73,SE,135,11.5,11.5,57,0.00,CLR,SKC,0.00,WeatherDisplay:10.37,2013-04-13 18:32:00,
2013-04-13 14:38:00,53.1,38.2,28.73,North,0,4.6,4.6,57,0.00,CLR,SKC,0.00,WeatherDisplay:10.37,2013-04-13 18:38:00,
2013-04-13 14:43:00,51.8,37.9,28.73,South,180,5.8,5.8,59,0.00,CLR,SKC,0.00,WeatherDisplay:10.37,2013-04-13 18:43:00,
2013-04-13 14:48:00,52.2,38.3,28.73,South,180,9.8,9.8,59,0.00,CLR,SKC,0.00,WeatherDisplay:10.37,2013-04-13 18:48:00,
2013-04-13 14:53:00,51.3,37.4,28.72,South,180,11.5,11.5,59,0.00,CLR,SKC,0.00,WeatherDisplay:10.37,2013-04-13 18:53:00,
2013-04-13 14:58:00,52.0,38.9,28.73,East,90,10.4,10.4,61,0.00,CLR,SKC,0.00,WeatherDisplay:10.37,2013-04-13 18:58:00,
2013-04-13 15:03:00,52.7,38.8,28.73,South,180,17.3,17.3,59,0.00,CLR,SKC,0.00,WeatherDisplay:10.37,2013-04-13 19:03:00,
2013-04-13 15:08:00,52.9,38.9,28.73,North,0,4.6,4.6,59,0.00,CLR,SKC,0.00,WeatherDisplay:10.37,2013-04-13 19:08:00,
2013-04-13 15:13:00,52.7,38.3,28.73,NNE,22,8.1,8.1,58,0.00,CLR,SKC,0.00,WeatherDisplay:10.37,2013-04-13 19:13:00,
2013-04-13 15:18:00,54.0,38.6,28.73,SE,135,12.7,12.7,56,0.00,CLR,SKC,0.00,WeatherDisplay:10.37,2013-04-13 19:18:00,
2013-04-13 15:23:00,54.7,39.7,28.73,South,180,8.1,8.1,57,0.00,CLR,SKC,0.00,WeatherDisplay:10.37,2013-04-13 19:23:00,
2013-04-13 15:28:00,54.5,38.7,28.73,South,180,21.9,21.9,55,0.00,CLR,SKC,0.00,WeatherDisplay:10.37,2013-04-13 19:28:00,
2013-04-13 15:33:00,53.6,38.7,28.73,South,180,12.7,12.7,57,0.00,CLR,SKC,0.00,WeatherDisplay:10.37,2013-04-13 19:33:00,
2013-04-13 15:38:00,52.5,37.7,28.73,South,180,12.7,12.7,57,0.00,CLR,SKC,0.00,WeatherDisplay:10.37,2013-04-13 19:38:00,
2013-04-13 15:43:00,52.3,38.4,28.73,South,180,10.4,10.4,59,0.00,CLR,SKC,0.00,WeatherDisplay:10.37,2013-04-13 19:43:00,
2013-04-13 15:48:00,52.7,37.9,28.73,South,180,10.4,10.4,57,0.00,CLR,SKC,0.00,WeatherDisplay:10.37,2013-04-13 19:48:00,
2013-04-13 15:53:00,54.1,39.7,28.73,SE,135,8.1,8.1,58,0.00,CLR,SKC,0.00,WeatherDisplay:10.37,2013-04-13 19:53:00,
2013-04-13 15:58:00,54.5,39.1,28.72,West,270,9.2,9.2,56,0.00,CLR,SKC,0.00,WeatherDisplay:10.37,2013-04-13 19:58:00,
2013-04-13 16:03:00,54.1,38.8,28.72,South,180,12.7,12.7,56,0.00,CLR,SKC,0.00,WeatherDisplay:10.37,2013-04-13 20:03:00,
2013-04-13 16:08:00,54.3,38.9,28.72,South,180,12.7,12.7,56,0.00,CLR,SKC,0.00,WeatherDisplay:10.37,2013-04-13 20:08:00,
2013-04-13 16:13:00,53.8,38.4,28.72,West,270,8.1,8.1,56,0.00,CLR,SKC,0.00,WeatherDisplay:10.37,2013-04-13 20:13:00,
2013-04-13 16:18:00,53.4,39.0,28.72,West,270,8.1,8.1,58,0.00,CLR,SKC,0.00,WeatherDisplay:10.37,2013-04-13 20:18:00,
2013-04-13 16:23:00,53.6,38.7,28.72,West,270,8.1,8.1,57,0.00,CLR,SKC,0.00,WeatherDisplay:10.37,2013-04-13 20:23:00,
2013-04-13 16:28:00,52.7,38.3,28.72,South,180,11.5,11.5,58,0.00,CLR,SKC,0.00,WeatherDisplay:10.37,2013-04-13 20:28:00,
2013-04-13 16:33:00,52.7,38.8,28.72,WSW,248,8.1,8.1,59,0.00,CLR,SKC,0.00,WeatherDisplay:10.37,2013-04-13 20:33:00,
2013-04-13 16:38:00,53.6,39.2,28.72,West,270,10.7,10.7,58,0.00,CLR,SKC,0.00,WeatherDisplay:10.37,2013-04-13 20:38:00,
2013-04-13 16:43:00,54.7,39.7,28.72,SSE,158,12.7,12.7,57,0.00,CLR,SKC,0.00,WeatherDisplay:10.37,2013-04-13 20:43:00,
2013-04-13 16:48:00,55.6,41.5,28.72,South,180,6.9,6.9,59,0.00,CLR,SKC,0.00,WeatherDisplay:10.37,2013-04-13 20:48:00,
2013-04-13 16:53:00,55.4,40.0,28.72,West,270,8.1,8.1,56,0.00,CLR,SKC,0.00,WeatherDisplay:10.37,2013-04-13 20:53:00,
2013-04-13 16:58:00,53.8,39.3,28.72,North,8,11.5,11.5,58,0.00,CLR,SKC,0.00,WeatherDisplay:10.37,2013-04-13 20:58:00,
2013-04-13 17:03:00,53.4,39.4,28.73,North,8,12.7,12.7,59,0.00,CLR,SKC,0.00,WeatherDisplay:10.37,2013-04-13 21:03:00,
2013-04-13 17:08:00,53.6,39.2,28.72,South,180,9.2,9.2,58,0.00,CLR,SKC,0.00,WeatherDisplay:10.37,2013-04-13 21:08:00,
2013-04-13 17:13:00,54.7,39.3,28.72,North,8,12.7,12.7,56,0.00,CLR,SKC,0.00,WeatherDisplay:10.37,2013-04-13 21:13:00,
2013-04-13 17:18:00,54.3,39.4,28.73,South,180,11.5,11.5,57,0.00,CLR,SKC,0.00,WeatherDisplay:10.37,2013-04-13 21:18:00,
2013-04-13 17:23:00,53.4,38.6,28.73,North,0,10.4,10.4,57,0.00,CLR,SKC,0.00,WeatherDisplay:10.37,2013-04-13 21:23:00,
2013-04-13 17:28:00,52.9,38.5,28.73,North,8,15.0,15.0,58,0.00,CLR,SKC,0.00,WeatherDisplay:10.37,2013-04-13 21:28:00,
2013-04-13 17:33:00,52.7,38.8,28.73,South,180,9.2,9.2,59,0.00,CLR,SKC,0.00,WeatherDisplay:10.37,2013-04-13 21:33:00,
2013-04-13 17:38:00,53.8,39.8,28.73,NW,315,10.4,10.4,59,0.00,CLR,SKC,0.00,WeatherDisplay:10.37,2013-04-13 21:38:00,
2013-04-13 17:43:00,55.0,40.1,28.73,South,180,12.7,12.7,57,0.00,CLR,SKC,0.00,WeatherDisplay:10.37,2013-04-13 21:43:00,
2013-04-13 17:48:00,54.3,39.4,28.74,West,270,15.0,15.0,57,0.00,CLR,SKC,0.00,WeatherDisplay:10.37,2013-04-13 21:48:00,
2013-04-13 17:53:00,52.7,38.8,28.74,West,270,11.5,11.5,59,0.00,CLR,SKC,0.00,WeatherDisplay:10.37,2013-04-13 21:53:00,
2013-04-13 17:58:00,52.2,38.7,28.75,South,180,15.0,15.0,60,0.00,CLR,SKC,0.00,WeatherDisplay:10.37,2013-04-13 21:58:00,
2013-04-13 18:03:00,52.7,39.2,28.74,West,270,8.1,8.1,60,0.00,CLR,SKC,0.00,WeatherDisplay:10.37,2013-04-13 22:03:00,
2013-04-13 18:08:00,53.8,39.8,28.75,South,180,12.7,12.7,59,0.00,CLR,SKC,0.00,WeatherDisplay:10.37,2013-04-13 22:08:00,
2013-04-13 18:13:00,53.6,39.6,28.75,South,180,20.7,20.7,59,0.00,CLR,SKC,0.00,WeatherDisplay:10.37,2013-04-13 22:13:00,
2013-04-13 18:18:00,52.5,39.0,28.75,NW,315,11.5,11.5,60,0.00,CLR,SKC,0.00,WeatherDisplay:10.37,2013-04-13 22:18:00,
2013-04-13 18:23:00,52.5,39.0,28.75,West,270,15.0,15.0,60,0.00,CLR,SKC,0.00,WeatherDisplay:10.37,2013-04-13 22:23:00,
2013-04-13 18:28:00,52.7,38.8,28.75,North,0,10.7,10.7,59,0.00,CLR,SKC,0.00,WeatherDisplay:10.37,2013-04-13 22:28:00,
2013-04-13 18:33:00,53.1,39.5,28.75,South,180,17.3,17.3,60,0.00,CLR,SKC,0.00,WeatherDisplay:10.37,2013-04-13 22:33:00,
2013-04-13 18:38:00,52.5,39.0,28.75,North,8,13.8,13.8,60,0.00,CLR,SKC,0.00,WeatherDisplay:10.37,2013-04-13 22:38:00,
2013-04-13 18:43:00,52.3,38.9,28.75,South,180,9.2,9.2,60,0.00,CLR,SKC,0.00,WeatherDisplay:10.37,2013-04-13 22:43:00,
2013-04-13 18:48:00,51.4,38.4,28.76,South,180,13.8,13.8,61,0.00,CLR,SKC,0.00,WeatherDisplay:10.37,2013-04-13 22:48:00,
2013-04-13 18:53:00,51.1,38.9,28.76,North,0,16.1,16.1,63,0.00,CLR,SKC,0.00,WeatherDisplay:10.37,2013-04-13 22:53:00,
2013-04-13 18:58:00,51.4,38.8,28.76,West,270,17.3,17.3,62,0.00,CLR,SKC,0.00,WeatherDisplay:10.37,2013-04-13 22:58:00,
2013-04-13 19:04:00,51.3,38.3,28.76,NNE,15,15.0,15.0,61,0.00,CLR,SKC,0.00,WeatherDisplay:10.37,2013-04-13 23:04:00,
2013-04-13 19:09:00,50.9,38.7,28.76,North,0,12.7,12.7,63,0.00,CLR,SKC,0.00,WeatherDisplay:10.37,2013-04-13 23:09:00,
2013-04-13 19:14:00,50.4,38.2,28.76,NNE,14,15.0,15.0,63,0.00,CLR,SKC,0.00,WeatherDisplay:10.37,2013-04-13 23:14:00,
2013-04-13 19:19:00,50.2,38.1,28.76,North,8,8.1,8.1,63,0.00,CLR,SKC,0.00,WeatherDisplay:10.37,2013-04-13 23:19:00,
2013-04-13 19:24:00,50.0,38.3,28.76,North,0,9.2,9.2,64,0.00,CLR,SKC,0.00,WeatherDisplay:10.37,2013-04-13 23:24:00,
2013-04-13 19:29:00,49.8,38.1,28.76,NNE,15,10.4,10.4,64,0.00,CLR,SKC,0.00,WeatherDisplay:10.37,2013-04-13 23:29:00,
2013-04-13 19:34:00,49.6,38.0,28.76,South,180,10.4,10.4,64,0.00,CLR,SKC,0.00,WeatherDisplay:10.37,2013-04-13 23:34:00,
2013-04-13 19:39:00,49.5,37.4,28.76,South,180,10.4,10.4,63,0.00,CLR,SKC,0.00,WeatherDisplay:10.37,2013-04-13 23:39:00,
2013-04-13 19:44:00,49.3,37.2,28.76,North,1,10.4,10.4,63,0.00,CLR,SKC,0.00,WeatherDisplay:10.37,2013-04-13 23:44:00,
2013-04-13 19:49:00,49.3,37.6,28.76,South,180,13.8,13.8,64,0.00,CLR,SKC,0.00,WeatherDisplay:10.37,2013-04-13 23:49:00,
2013-04-13 19:54:00,49.1,37.4,28.76,South,180,10.4,10.4,64,0.00,CLR,SKC,0.00,WeatherDisplay:10.37,2013-04-13 23:54:00,
2013-04-13 19:59:00,48.9,37.3,28.76,South,180,4.6,4.6,64,0.00,CLR,SKC,0.00,WeatherDisplay:10.37,2013-04-13 23:59:00,
2013-04-13 20:04:00,48.7,37.5,28.76,South,180,6.9,6.9,65,0.00,CLR,SKC,0.00,WeatherDisplay:10.37,2013-04-14 00:04:00,
2013-04-13 20:09:00,48.7,37.5,28.76,South,180,3.5,3.5,65,0.00,CLR,SKC,0.00,WeatherDisplay:10.37,2013-04-14 00:09:00,
2013-04-13 20:14:00,48.7,37.5,28.76,South,180,5.8,0.0,65,0.00,CLR,SKC,0.00,WeatherDisplay:10.37,2013-04-14 00:14:00,
2013-04-13 20:19:00,48.6,37.3,28.77,West,270,3.5,3.5,65,0.00,CLR,SKC,0.00,WeatherDisplay:10.37,2013-04-14 00:19:00,
2013-04-13 20:24:00,48.6,37.3,28.76,South,180,5.8,5.8,65,0.00,CLR,SKC,0.00,WeatherDisplay:10.37,2013-04-14 00:24:00,
2013-04-13 20:29:00,48.6,37.3,28.77,South,180,4.6,4.6,65,0.00,CLR,SKC,0.00,WeatherDisplay:10.37,2013-04-14 00:29:00,
2013-04-13 20:34:00,48.6,37.3,28.77,South,180,8.1,8.1,65,0.00,CLR,SKC,0.00,WeatherDisplay:10.37,2013-04-14 00:34:00,
2013-04-13 20:39:00,48.4,37.2,28.76,South,180,3.5,0.0,65,0.00,CLR,SKC,0.00,WeatherDisplay:10.37,2013-04-14 00:39:00,
2013-04-13 20:44:00,48.2,37.0,28.76,South,180,6.9,6.9,65,0.00,CLR,SKC,0.00,WeatherDisplay:10.37,2013-04-14 00:44:00,
2013-04-13 20:49:00,48.2,37.4,28.77,NW,315,5.8,0.0,66,0.00,CLR,SKC,0.00,WeatherDisplay:10.37,2013-04-14 00:49:00,
2013-04-13 20:54:00,48.2,37.4,28.77,South,180,4.6,4.6,66,0.00,CLR,SKC,0.00,WeatherDisplay:10.37,2013-04-14 00:54:00,
2013-04-13 20:59:00,48.2,37.4,28.77,South,180,5.8,5.8,66,0.00,CLR,SKC,0.00,WeatherDisplay:10.37,2013-04-14 00:59:00,
2013-04-13 21:04:00,48.2,37.4,28.77,South,180,3.5,3.5,66,0.00,CLR,SKC,0.00,WeatherDisplay:10.37,2013-04-14 01:04:00,
2013-04-13 21:09:00,47.8,37.0,28.77,East,90,1.2,0.0,66,0.00,CLR,SKC,0.00,WeatherDisplay:10.37,2013-04-14 01:09:00,
2013-04-13 21:14:00,47.7,36.9,28.77,South,180,0.0,0.0,66,0.00,CLR,SKC,0.00,WeatherDisplay:10.37,2013-04-14 01:14:00,
2013-04-13 21:19:00,47.5,37.1,28.77,SE,135,0.0,0.0,67,0.00,CLR,SKC,0.00,WeatherDisplay:10.37,2013-04-14 01:19:00,
2013-04-13 21:24:00,47.7,37.2,28.78,South,180,4.6,4.6,67,0.00,CLR,SKC,0.00,WeatherDisplay:10.37,2013-04-14 01:24:00,
2013-04-13 21:29:00,47.5,37.1,28.78,South,180,5.8,5.8,67,0.00,CLR,SKC,0.00,WeatherDisplay:10.37,2013-04-14 01:29:00,
2013-04-13 21:34:00,47.7,37.2,28.78,South,180,5.8,5.8,67,0.00,CLR,SKC,0.00,WeatherDisplay:10.37,2013-04-14 01:34:00,
2013-04-13 21:39:00,47.7,37.2,28.78,South,180,5.8,5.8,67,0.00,CLR,SKC,0.00,WeatherDisplay:10.37,2013-04-14 01:39:00,
2013-04-13 21:44:00,47.7,37.2,28.78,South,180,8.1,8.1,67,0.00,CLR,SKC,0.00,WeatherDisplay:10.37,2013-04-14 01:44:00,
2013-04-13 21:49:00,47.3,37.3,28.78,South,180,5.8,5.8,68,0.00,CLR,SKC,0.00,WeatherDisplay:10.37,2013-04-14 01:49:00,
2013-04-13 21:54:00,47.3,37.3,28.78,South,180,4.6,4.6,68,0.00,CLR,SKC,0.00,WeatherDisplay:10.37,2013-04-14 01:54:00,
2013-04-13 21:59:00,47.1,37.1,28.78,South,180,4.6,4.6,68,0.00,CLR,SKC,0.00,WeatherDisplay:10.37,2013-04-14 01:59:00,
2013-04-13 22:05:00,46.8,37.1,28.78,South,180,3.5,3.5,69,0.00,CLR,SKC,0.00,WeatherDisplay:10.37,2013-04-14 02:05:00,
2013-04-13 22:10:00,46.4,36.8,28.78,South,180,2.3,2.3,69,0.00,CLR,SKC,0.00,WeatherDisplay:10.37,2013-04-14 02:10:00,
2013-04-13 22:15:00,46.4,36.8,28.78,South,180,5.8,5.8,69,0.00,CLR,SKC,0.00,WeatherDisplay:10.37,2013-04-14 02:15:00,
2013-04-13 22:20:00,46.2,36.6,28.79,South,180,3.1,3.1,69,0.00,CLR,SKC,0.00,WeatherDisplay:10.37,2013-04-14 02:20:00,
2013-04-13 22:25:00,46.0,36.8,28.79,South,180,3.1,3.1,70,0.00,CLR,SKC,0.00,WeatherDisplay:10.37,2013-04-14 02:25:00,
2013-04-13 22:30:00,45.9,37.0,28.79,North,0,3.5,3.5,71,0.00,CLR,SKC,0.00,WeatherDisplay:10.37,2013-04-14 02:30:00,
2013-04-13 22:35:00,45.9,37.0,28.79,North,8,5.8,5.8,71,0.00,CLR,SKC,0.00,WeatherDisplay:10.37,2013-04-14 02:35:00,
2013-04-13 22:40:00,45.9,37.0,28.79,North,0,4.6,4.6,71,0.00,CLR,SKC,0.00,WeatherDisplay:10.37,2013-04-14 02:40:00,
2013-04-13 22:46:00,45.9,37.0,28.80,NNE,13,5.8,5.8,71,0.00,CLR,SKC,0.00,WeatherDisplay:10.37,2013-04-14 02:46:00,
2013-04-13 22:51:00,45.9,37.0,28.80,North,0,9.2,9.2,71,0.00,CLR,SKC,0.00,WeatherDisplay:10.37,2013-04-14 02:51:00,
2013-04-13 22:56:00,45.5,37.0,28.80,North,8,8.1,8.1,72,0.00,CLR,SKC,0.00,WeatherDisplay:10.37,2013-04-14 02:56:00,
2013-04-13 23:01:00,45.3,36.8,28.80,South,180,6.9,6.9,72,0.00,CLR,SKC,0.00,WeatherDisplay:10.37,2013-04-14 03:01:00,
2013-04-13 23:06:00,45.1,37.0,28.80,North,8,11.5,11.5,73,0.00,CLR,SKC,0.00,WeatherDisplay:10.37,2013-04-14 03:06:00,
2013-04-13 23:11:00,45.0,37.2,28.81,North,8,11.5,11.5,74,0.00,CLR,SKC,0.00,WeatherDisplay:10.37,2013-04-14 03:11:00,
2013-04-13 23:16:00,44.8,37.3,28.80,North,8,10.4,10.4,75,0.00,CLR,SKC,0.00,WeatherDisplay:10.37,2013-04-14 03:16:00,
2013-04-13 23:21:00,44.6,37.2,28.80,North,0,9.2,9.2,75,0.00,CLR,SKC,0.00,WeatherDisplay:10.37,2013-04-14 03:21:00,
2013-04-13 23:26:00,44.4,37.3,28.80,North,0,6.9,6.9,76,0.00,CLR,SKC,0.00,WeatherDisplay:10.37,2013-04-14 03:26:00,
2013-04-13 23:31:00,44.2,37.5,28.80,North,0,8.1,8.1,77,0.00,CLR,SKC,0.00,WeatherDisplay:10.37,2013-04-14 03:31:00,
2013-04-13 23:36:00,44.1,37.3,28.81,North,0,13.8,13.8,77,0.00,CLR,SKC,0.00,WeatherDisplay:10.37,2013-04-14 03:36:00,
2013-04-13 23:41:00,43.9,37.1,28.81,North,0,11.5,11.5,77,0.00,CLR,SKC,0.00,WeatherDisplay:10.37,2013-04-14 03:41:00,
2013-04-13 23:46:00,43.7,37.3,28.81,West,270,10.4,10.4,78,0.00,CLR,SKC,0.00,WeatherDisplay:10.37,2013-04-14 03:46:00,
2013-04-13 23:51:00,43.5,37.1,28.82,North,1,15.0,15.0,78,0.00,CLR,SKC,0.00,WeatherDisplay:10.37,2013-04-14 03:51:00,
2013-04-13 23:56:00,43.3,37.3,28.82,North,0,15.0,15.0,79,0.00,CLR,SKC,0.00,WeatherDisplay:10.37,2013-04-14 03:56:00,